Time,TemperatureF,DewpointF,PressureIn,WindDirection,WindDirectionDegrees,WindSpeedMPH,WindSpeedGustMPH,Humidity,HourlyPrecipIn,Conditions,Clouds,dailyrainin,SoftwareType,DateUTC
2013-03-17 00:06:00,34.8,29.0,30.09,North,354,3.0,5.0,78,0.00,,,0.00,weatherlink.com 1.10,2013-03-17 05:06:00,
2013-03-17 00:22:00,34.7,29.0,30.09,NNW,329,4.0,6.0,79,0.00,,,0.00,weatherlink.com 1.10,2013-03-17 05:22:00,
2013-03-17 00:36:00,34.7,29.0,30.09,NNW,345,5.0,9.0,79,0.00,,,0.00,weatherlink.com 1.10,2013-03-17 05:36:00,
2013-03-17 00:52:00,34.5,29.0,30.08,North,11,4.0,10.0,80,0.00,,,0.00,weatherlink.com 1.10,2013-03-17 05:52:00,
2013-03-17 01:07:00,34.4,29.0,30.09,NE,49,3.0,11.0,81,0.00,,,0.00,weatherlink.com 1.10,2013-03-17 06:07:00,
2013-03-17 01:22:00,34.2,29.0,30.09,North,350,3.0,8.0,82,0.00,,,0.00,weatherlink.com 1.10,2013-03-17 06:22:00,
2013-03-17 01:36:00,33.8,29.0,30.10,NE,38,2.0,9.0,81,0.00,,,0.00,weatherlink.com 1.10,2013-03-17 06:36:00,
2013-03-17 01:52:00,33.4,29.0,30.10,NE,47,4.0,9.0,82,0.00,,,0.00,weatherlink.com 1.10,2013-03-17 06:52:00,
2013-03-17 02:07:00,33.1,28.0,30.10,ENE,59,5.0,7.0,82,0.00,,,0.00,weatherlink.com 1.10,2013-03-17 07:07:00,
2013-03-17 02:23:00,32.7,28.0,30.11,North,352,3.0,7.0,82,0.00,,,0.00,weatherlink.com 1.10,2013-03-17 07:23:00,
2013-03-17 02:37:00,32.6,28.0,30.11,NE,56,3.0,7.0,82,0.00,,,0.00,weatherlink.com 1.10,2013-03-17 07:37:00,
2013-03-17 02:53:00,32.4,28.0,30.10,NNE,19,4.0,8.0,82,0.00,,,0.00,weatherlink.com 1.10,2013-03-17 07:53:00,
2013-03-17 03:07:00,32.3,27.0,30.10,NE,49,3.0,8.0,82,0.00,,,0.00,weatherlink.com 1.10,2013-03-17 08:07:00,
2013-03-17 03:23:00,32.2,27.0,30.10,ENE,64,6.0,9.0,82,0.00,,,0.00,weatherlink.com 1.10,2013-03-17 08:23:00,
2013-03-17 03:38:00,32.1,27.0,30.10,NE,44,4.0,10.0,82,0.00,,,0.00,weatherlink.com 1.10,2013-03-17 08:38:00,
2013-03-17 03:53:00,32.0,27.0,30.11,ENE,78,10.0,10.0,82,0.00,,,0.00,weatherlink.com 1.10,2013-03-17 08:53:00,
2013-03-17 04:08:00,31.9,27.0,30.12,NE,56,2.0,10.0,82,0.00,,,0.00,weatherlink.com 1.10,2013-03-17 09:08:00,
2013-03-17 04:23:00,31.8,27.0,30.12,ENE,63,9.0,9.0,83,0.00,,,0.00,weatherlink.com 1.10,2013-03-17 09:23:00,
2013-03-17 04:37:00,31.7,27.0,30.13,ENE,75,6.0,10.0,82,0.00,,,0.00,weatherlink.com 1.10,2013-03-17 09:37:00,
2013-03-17 04:53:00,31.6,27.0,30.11,NNE,20,6.0,10.0,82,0.00,,,0.00,weatherlink.com 1.10,2013-03-17 09:53:00,
2013-03-17 05:07:00,31.4,27.0,30.11,ENE,57,6.0,10.0,82,0.00,,,0.00,weatherlink.com 1.10,2013-03-17 10:07:00,
2013-03-17 05:23:00,31.3,26.0,30.11,ENE,65,9.0,12.0,81,0.00,,,0.00,weatherlink.com 1.10,2013-03-17 10:23:00,
2013-03-17 05:39:00,31.2,26.0,30.11,ENE,57,2.0,13.0,81,0.00,,,0.00,weatherlink.com 1.10,2013-03-17 10:39:00,
2013-03-17 05:53:00,31.1,26.0,30.12,ENE,75,8.0,10.0,81,0.00,,,0.00,weatherlink.com 1.10,2013-03-17 10:53:00,
2013-03-17 06:08:00,31.0,26.0,30.12,ENE,60,9.0,12.0,80,0.00,,,0.00,weatherlink.com 1.10,2013-03-17 11:08:00,
2013-03-17 06:24:00,30.9,25.0,30.14,East,81,6.0,13.0,79,0.00,,,0.00,weatherlink.com 1.10,2013-03-17 11:24:00,
2013-03-17 06:39:00,30.9,25.0,30.14,ENE,75,6.0,14.0,79,0.00,,,0.00,weatherlink.com 1.10,2013-03-17 11:39:00,
2013-03-17 06:54:00,30.8,25.0,30.14,ENE,64,8.0,11.0,80,0.00,,,0.00,weatherlink.com 1.10,2013-03-17 11:54:00,
2013-03-17 07:08:00,30.8,25.0,30.14,ENE,78,6.0,11.0,79,0.00,,,0.00,weatherlink.com 1.10,2013-03-17 12:08:00,
2013-03-17 07:24:00,30.8,25.0,30.14,ENE,74,8.0,13.0,79,0.00,,,0.00,weatherlink.com 1.10,2013-03-17 12:24:00,
2013-03-17 07:40:00,30.7,25.0,30.14,ENE,69,6.0,10.0,80,0.00,,,0.00,weatherlink.com 1.10,2013-03-17 12:40:00,
2013-03-17 07:54:00,30.7,25.0,30.14,ENE,78,7.0,11.0,80,0.00,,,0.00,weatherlink.com 1.10,2013-03-17 12:54:00,
2013-03-17 08:10:00,30.7,25.0,30.14,NE,56,7.0,12.0,80,0.00,,,0.00,weatherlink.com 1.10,2013-03-17 13:10:00,
2013-03-17 08:24:00,30.8,25.0,30.15,NE,56,16.0,16.0,79,0.00,,,0.00,weatherlink.com 1.10,2013-03-17 13:24:00,
2013-03-17 08:39:00,30.9,25.0,30.15,ENE,70,6.0,12.0,78,0.00,,,0.00,weatherlink.com 1.10,2013-03-17 13:39:00,
2013-03-17 08:55:00,31.2,25.0,30.15,East,84,8.0,11.0,78,0.00,,,0.00,weatherlink.com 1.10,2013-03-17 13:55:00,
2013-03-17 09:11:00,31.1,25.0,30.15,East,79,7.0,14.0,78,0.00,,,0.00,weatherlink.com 1.10,2013-03-17 14:11:00,
2013-03-17 09:25:00,31.2,25.0,30.15,ENE,64,13.0,14.0,78,0.00,,,0.00,weatherlink.com 1.10,2013-03-17 14:25:00,
2013-03-17 09:39:00,31.4,25.0,30.14,ENE,78,9.0,12.0,78,0.00,,,0.00,weatherlink.com 1.10,2013-03-17 14:39:00,
2013-03-17 09:55:00,31.6,25.0,30.14,ENE,75,12.0,16.0,78,0.00,,,0.00,weatherlink.com 1.10,2013-03-17 14:55:00,
2013-03-17 10:11:00,31.8,25.0,30.14,ENE,72,15.0,20.0,77,0.00,,,0.00,weatherlink.com 1.10,2013-03-17 15:11:00,
2013-03-17 10:25:00,31.8,26.0,30.14,East,96,10.0,14.0,78,0.00,,,0.00,weatherlink.com 1.10,2013-03-17 15:25:00,
2013-03-17 10:40:00,32.1,26.0,30.14,ENE,72,11.0,14.0,77,0.00,,,0.00,weatherlink.com 1.10,2013-03-17 15:40:00,
2013-03-17 10:54:00,32.7,26.0,30.14,ENE,68,9.0,19.0,76,0.00,,,0.00,weatherlink.com 1.10,2013-03-17 15:54:00,
2013-03-17 11:10:00,33.5,27.0,30.14,East,82,13.0,18.0,76,0.00,,,0.00,weatherlink.com 1.10,2013-03-17 16:10:00,
2013-03-17 11:25:00,33.7,27.0,30.13,ENE,70,17.0,18.0,76,0.00,,,0.00,weatherlink.com 1.10,2013-03-17 16:25:00,
2013-03-17 11:40:00,33.6,26.0,30.13,East,79,15.0,20.0,75,0.00,,,0.00,weatherlink.com 1.10,2013-03-17 16:40:00,
2013-03-17 11:56:00,33.9,27.0,30.12,ENE,68,11.0,17.0,75,0.00,,,0.00,weatherlink.com 1.10,2013-03-17 16:56:00,
2013-03-17 12:26:00,34.4,27.0,30.11,ENE,68,14.0,19.0,75,0.00,,,0.00,weatherlink.com 1.10,2013-03-17 17:26:00,
2013-03-17 12:40:00,34.7,28.0,30.11,ENE,75,12.0,18.0,75,0.00,,,0.00,weatherlink.com 1.10,2013-03-17 17:40:00,
2013-03-17 12:57:00,35.0,28.0,30.09,East,99,12.0,22.0,74,0.00,,,0.00,weatherlink.com 1.10,2013-03-17 17:57:00,
2013-03-17 13:12:00,35.2,28.0,30.08,ENE,76,15.0,18.0,74,0.00,,,0.00,weatherlink.com 1.10,2013-03-17 18:12:00,
2013-03-17 13:26:00,35.9,28.0,30.07,East,91,7.0,16.0,72,0.00,,,0.00,weatherlink.com 1.10,2013-03-17 18:26:00,
2013-03-17 13:42:00,35.7,28.0,30.07,ENE,77,11.0,18.0,73,0.00,,,0.00,weatherlink.com 1.10,2013-03-17 18:42:00,
2013-03-17 13:56:00,36.2,28.0,30.06,East,101,12.0,17.0,72,0.00,,,0.00,weatherlink.com 1.10,2013-03-17 18:56:00,
2013-03-17 14:12:00,35.9,28.0,30.05,East,82,15.0,21.0,72,0.00,,,0.00,weatherlink.com 1.10,2013-03-17 19:12:00,
2013-03-17 14:27:00,36.6,28.0,30.04,ENE,75,10.0,18.0,72,0.00,,,0.00,weatherlink.com 1.10,2013-03-17 19:27:00,
2013-03-17 14:41:00,36.9,28.0,30.03,ENE,76,13.0,22.0,71,0.00,,,0.00,weatherlink.com 1.10,2013-03-17 19:41:00,
2013-03-17 14:57:00,36.6,28.0,30.03,ESE,118,7.0,20.0,71,0.00,,,0.00,weatherlink.com 1.10,2013-03-17 19:57:00,
2013-03-17 15:11:00,37.0,28.0,30.03,East,93,8.0,18.0,70,0.00,,,0.00,weatherlink.com 1.10,2013-03-17 20:11:00,
2013-03-17 15:27:00,37.2,28.0,30.02,ESE,103,14.0,18.0,70,0.00,,,0.00,weatherlink.com 1.10,2013-03-17 20:27:00,
2013-03-17 15:42:00,37.5,29.0,30.01,ENE,68,14.0,19.0,70,0.00,,,0.00,weatherlink.com 1.10,2013-03-17 20:42:00,
2013-03-17 16:12:00,37.8,28.0,30.00,ENE,65,13.0,17.0,68,0.00,,,0.00,weatherlink.com 1.10,2013-03-17 21:12:00,
2013-03-17 16:27:00,37.9,29.0,29.99,ENE,65,11.0,15.0,69,0.00,,,0.00,weatherlink.com 1.10,2013-03-17 21:27:00,
2013-03-17 16:42:00,37.7,29.0,29.99,ENE,75,17.0,19.0,70,0.00,,,0.00,weatherlink.com 1.10,2013-03-17 21:42:00,
2013-03-17 16:58:00,37.8,29.0,29.99,ENE,75,7.0,15.0,71,0.00,,,0.00,weatherlink.com 1.10,2013-03-17 21:58:00,
2013-03-17 17:13:00,37.5,29.0,29.98,East,94,8.0,15.0,72,0.00,,,0.00,weatherlink.com 1.10,2013-03-17 22:13:00,
2013-03-17 17:28:00,37.5,30.0,29.97,ESE,107,14.0,18.0,73,0.00,,,0.00,weatherlink.com 1.10,2013-03-17 22:28:00,
2013-03-17 17:42:00,37.6,30.0,29.97,ENE,70,15.0,20.0,73,0.00,,,0.00,weatherlink.com 1.10,2013-03-17 22:42:00,
2013-03-17 17:59:00,37.5,30.0,29.97,ENE,71,4.0,16.0,74,0.00,,,0.00,weatherlink.com 1.10,2013-03-17 22:59:00,
2013-03-17 18:13:00,37.4,30.0,29.95,ENE,76,10.0,17.0,75,0.00,,,0.00,weatherlink.com 1.10,2013-03-17 23:13:00,
2013-03-17 18:29:00,37.4,30.0,29.97,ENE,74,12.0,17.0,75,0.00,,,0.00,weatherlink.com 1.10,2013-03-17 23:29:00,
2013-03-17 18:44:00,37.5,30.0,29.97,ENE,70,15.0,17.0,75,0.00,,,0.00,weatherlink.com 1.10,2013-03-17 23:44:00,
2013-03-17 18:58:00,37.3,30.0,29.95,ENE,75,18.0,18.0,76,0.00,,,0.00,weatherlink.com 1.10,2013-03-17 23:58:00,
2013-03-17 19:13:00,37.2,31.0,29.94,ENE,75,15.0,18.0,77,0.00,,,0.00,weatherlink.com 1.10,2013-03-18 00:13:00,
2013-03-17 19:28:00,37.0,30.0,29.94,East,93,10.0,20.0,77,0.00,,,0.00,weatherlink.com 1.10,2013-03-18 00:28:00,
2013-03-17 19:44:00,37.0,31.0,29.93,ESE,105,11.0,17.0,78,0.00,,,0.00,weatherlink.com 1.10,2013-03-18 00:44:00,
2013-03-17 19:58:00,36.9,31.0,29.94,East,83,8.0,15.0,78,0.00,,,0.00,weatherlink.com 1.10,2013-03-18 00:58:00,
2013-03-17 20:14:00,36.9,31.0,29.94,ENE,78,12.0,16.0,79,0.00,,,0.00,weatherlink.com 1.10,2013-03-18 01:14:00,
2013-03-17 20:29:00,36.8,31.0,29.94,ENE,71,10.0,18.0,79,0.00,,,0.00,weatherlink.com 1.10,2013-03-18 01:29:00,
2013-03-17 20:44:00,36.8,31.0,29.93,East,91,10.0,19.0,80,0.00,,,0.00,weatherlink.com 1.10,2013-03-18 01:44:00,
2013-03-17 20:59:00,36.7,31.0,29.92,ENE,76,10.0,18.0,80,0.00,,,0.00,weatherlink.com 1.10,2013-03-18 01:59:00,
2013-03-17 21:14:00,36.8,31.0,29.92,ENE,61,12.0,20.0,79,0.00,,,0.00,weatherlink.com 1.10,2013-03-18 02:14:00,
2013-03-17 21:30:00,36.8,31.0,29.91,ENE,71,13.0,15.0,79,0.00,,,0.00,weatherlink.com 1.10,2013-03-18 02:30:00,
2013-03-17 21:44:00,36.8,31.0,29.91,ENE,70,13.0,16.0,80,0.00,,,0.00,weatherlink.com 1.10,2013-03-18 02:44:00,
2013-03-17 22:00:00,36.7,31.0,29.91,ENE,69,11.0,15.0,80,0.00,,,0.00,weatherlink.com 1.10,2013-03-18 03:00:00,
2013-03-17 22:14:00,36.8,31.0,29.91,East,94,11.0,12.0,80,0.00,,,0.00,weatherlink.com 1.10,2013-03-18 03:14:00,
2013-03-17 22:29:00,36.8,31.0,29.90,East,80,8.0,13.0,79,0.00,,,0.00,weatherlink.com 1.10,2013-03-18 03:29:00,
2013-03-17 22:45:00,36.8,31.0,29.88,ENE,71,12.0,21.0,78,0.00,,,0.00,weatherlink.com 1.10,2013-03-18 03:45:00,
2013-03-17 23:00:00,36.5,31.0,29.88,East,91,15.0,21.0,79,0.00,,,0.00,weatherlink.com 1.10,2013-03-18 04:00:00,
2013-03-17 23:14:00,36.2,31.0,29.89,East,82,5.0,15.0,82,0.00,,,0.00,weatherlink.com 1.10,2013-03-18 04:14:00,
2013-03-17 23:30:00,35.7,31.0,29.88,East,82,12.0,12.0,84,0.00,,,0.00,weatherlink.com 1.10,2013-03-18 04:30:00,
2013-03-17 23:45:00,35.1,31.0,29.88,East,85,12.0,16.0,86,0.00,,,0.00,weatherlink.com 1.10,2013-03-18 04:45:00,